Location: Burleson Alternative School
(32.5290°N, 97.3406°W)
Time: 22:46:43
(UTC+00:00)

JUGNU - Pass Details

Date: 11 December 2024
Orbit: 834 x 861 km, 20.0° (Epoch: 19 January)

Event Time Altitude Azimuth Distance (km) Brightness Sun altitude
Exits shadow 11:15:29 20° 204° (SSW) 1,816 ? -25.8°
Maximum altitude 11:17:12 23° 179° (S) 1,688 ? -25.5°
Drops below altitude 10° 11:21:41 10° 128° (SE) 2,426 ? -24.5°
Sets 11:24:42 0° 114° (ESE) 3,362 ? -23.9°
